Location: Copper Breaks State Park
(34.1132°N, 99.7492°W)
Time: 20:35:56
(UTC-05:00)

SL-16 R/B - Visible Passes

Search period start: 24 April 2015 00:00
Search period end: 04 May 2015 00:00
Orbit: 985 x 1007 km, 99.2° (Epoch: 22 April)

Date Brightness Start Highest point End Pass type
(mag) Time Alt. Az. Time Alt. Az. Time Alt. Az.
24 Apr 4.1 04:20:27 10° SE 04:25:51 33° ENE 04:31:22 10° N visible
24 Apr 3.1 06:03:48 10° SSW 06:09:27 34° W 06:15:01 10° NW visible
25 Apr 3.1 04:50:26 10° SSE 04:56:33 59° ENE 05:02:42 10° N visible
26 Apr 5.2 03:41:14 10° E 03:44:19 15° ENE 03:47:45 10° NNE visible
26 Apr 2.5 05:21:05 10° S 05:27:21 78° WSW 05:33:38 10° NNW visible
27 Apr 4.5 04:09:52 10° ESE 04:14:52 27° ENE 04:20:01 10° NNE visible
27 Apr 2.9 05:52:24 10° S 05:58:18 42° W 06:04:11 10° NNW visible
28 Apr 3.5 04:39:36 10° SE 04:45:31 48° ENE 04:51:30 10° N visible
28 Apr 3.6 06:24:33 10° SW 06:29:27 23° W 06:34:07 10° NW visible
29 Apr 5.3 03:31:33 10° E 03:33:24 12° ENE 03:35:39 10° NE visible
29 Apr 2.6 05:10:02 10° SSE 05:16:17 86° ENE 05:22:35 10° NNW visible
30 Apr 4.8 03:59:24 10° ESE 04:03:53 22° ENE 04:08:35 10° NNE visible
30 Apr 2.7 05:41:06 10° S 05:47:11 52° W 05:53:16 10° NNW visible
01 May 3.8 04:28:50 10° SE 04:34:31 39° ENE 04:40:16 10° N visible
01 May 3.4 06:12:55 10° SSW 06:18:15 28° W 06:23:27 10° NW visible
02 May 2.8 04:59:02 10° SSE 05:05:14 71° ENE 05:11:28 10° N visible
03 May 5.0 03:49:06 10° ESE 03:52:56 18° ENE 03:57:02 10° NNE visible
03 May 2.5 05:29:53 10° S 05:36:05 65° WSW 05:42:18 10° NNW visible
